1488031201.2,10204,8.81,72916.3,-10.77,-45.27,-45.41,0,*66
1488031202.44,10205,8.81,72924.0,-10.77,-45.27,-45.21,0,*61
1488031203.66,10206,8.81,72930.8,-10.77,-45.21,-45.21,0,*64
1488031204.92,10207,8.81,72934.5,-10.77,-45.07,-44.67,0,*62
1488031206.13,10208,8.81,72932.0,-10.77,-45.21,-45.21,0,*6A
1488031207.38,10209,8.81,72924.8,-10.77,-45.07,-45.21,0,*6F
1488031208.64,10210,8.81,72924.8,-10.77,-45.07,-45.07,0,*63
1488031209.89,10211,8.81,72930.0,-10.77,-44.47,-44.47,0,*62
1488031211.16,10212,8.81,72936.3,-10.73,-44.73,-44.73,0,*65
1488031212.38,10213,8.81,72934.8,-10.77,-45.21,-44.99,0,*62
1488031213.59,10214,8.81,72934.5,-10.77,-45.41,-45.53,0,*64
1488031214.82,10215,8.81,72932.5,-10.77,-44.47,-44.41,0,*60
1488031216.08,10216,8.81,72932.5,-10.75,-44.41,-44.33,0,*62
1488031217.32,10217,8.81,72934.3,-10.77,-45.21,-45.27,0,*62
1488031218.56,10218,8.81,72924.8,-10.77,-44.67,-44.79,0,*64
1488031219.8,10219,8.81,72926.3,-10.75,-44.53,-44.61,0,*69
1488031221.04,10220,8.81,72930.0,-10.75,-44.61,-44.61,0,*62
1488031222.31,10221,8.81,72936.5,-10.75,-44.99,-44.93,0,*69
1488031223.56,10222,8.81,72944.5,-10.75,-44.79,-44.61,0,*69
1488031224.81,10223,8.75,72938.3,-10.75,-44.79,-44.99,0,*6F
1488031226.04,10224,8.81,72942.3,-10.75,-45.33,-45.33,0,*66
1488031227.28,10225,8.81,72946.3,-10.75,-44.53,-44.53,0,*67
1488031228.52,10226,8.81,72944.8,-10.75,-44.41,-44.61,0,*66
1488031229.75,10227,8.81,72938.0,-10.77,-45.67,-45.73,0,*62
1488031231.01,10228,8.81,72942.0,-10.75,-46.01,-46.01,0,*6A
1488031232.29,10229,8.81,72942.5,-10.75,-45.81,-45.81,0,*6B
1488031233.54,10230,8.81,72932.5,-10.75,-45.21,-45.13,0,*62
1488031234.75,10231,8.81,72914.8,-10.77,-44.61,-44.61,0,*60
1488031235.96,10232,8.81,72918.5,-10.77,-44.99,-44.79,0,*6D
1488031237.23,10233,8.81,72916.8,-10.75,-44.73,-44.79,0,*6A
1488031238.44,10234,8.81,72922.5,-10.77,-44.79,-44.61,0,*6C
1488031239.68,10235,8.81,72928.3,-10.75,-44.41,-44.41,0,*66
1488031240.98,10236,8.81,72938.0,-10.75,-44.73,-44.73,0,*65
1488031242.22,10237,8.81,72938.0,-10.75,-44.61,-44.53,0,*65
1488031243.43,10238,8.81,72940.5,-10.73,-45.21,-45.13,0,*6C
1488031244.7,10239,8.81,72936.0,-10.73,-45.47,-45.47,0,*6C
1488031246.0,10240,8.81,72936.0,-10.75,-46.07,-46.07,0,*64
1488031247.24,10241,8.81,72938.8,-10.75,-45.87,-46.01,0,*68
1488031248.45,10242,8.81,72942.8,-10.77,-45.41,-45.53,0,*67
1488031249.69,10243,8.81,72940.8,-10.75,-47.09,-47.17,0,*68
1488031250.93,10244,8.81,72940.3,-10.77,-47.79,-47.65,0,*6F
1488031252.15,10245,8.81,72918.0,-10.81,-48.97,-49.05,0,*60
1488031253.38,10246,8.81,72922.3,-10.83,-48.83,-49.05,0,*64
1488031254.65,10247,8.81,72924.8,-10.87,-48.13,-48.41,0,*69
1488031255.89,10248,8.81,72930.5,-10.89,-47.37,-47.57,0,*69
1488031257.13,10249,8.81,72924.5,-10.91,-45.87,-45.87,0,*67
1488031258.34,10250,8.81,72934.5,-10.89,-45.67,-45.67,0,*66
1488031259.59,10251,8.81,72932.5,-10.91,-46.55,-46.75,0,*6C
1488031260.85,10252,8.81,72930.8,-10.91,-46.55,-46.69,0,*62
1488031262.06,10253,8.81,72920.0,-10.93,-47.65,-47.65,0,*6E
1488031263.32,10254,8.81,72920.8,-10.93,-47.37,-47.37,0,*69
1488031264.6,10255,8.81,72912.3,-10.95,-47.71,-47.93,0,*62
1488031265.87,10256,8.81,72908.8,-10.95,-47.93,-47.85,0,*6A
1488031267.08,10257,8.81,72914.8,-10.97,-47.17,-47.17,0,*6E
1488031268.31,10258,8.81,72920.3,-10.97,-46.83,-46.83,0,*61
1488031269.57,10259,8.81,72920.8,-10.97,-45.81,-45.73,0,*6D
1488031270.85,10260,8.81,72912.5,-10.99,-47.93,-47.71,0,*68
1488031272.09,10261,8.81,72918.5,-10.99,-47.31,-47.51,0,*63
1488031273.33,10262,8.81,72918.0,-11.03,-46.75,-47.17,0,*61
1488031274.6,10263,8.81,72910.0,-11.01,-46.89,-47.03,0,*64
1488031275.84,10264,8.81,72916.3,-11.03,-46.55,-46.55,0,*62
1488031277.09,10265,8.81,72912.0,-11.05,-47.09,-47.23,0,*6D
1488031278.33,10266,8.81,72908.5,-11.05,-47.09,-47.23,0,*6E
1488031279.59,10267,8.81,72904.8,-11.05,-49.19,-49.33,0,*6F
1488031280.85,10268,8.81,72914.0,-11.09,-48.07,-48.27,0,*66
1488031282.09,10269,8.81,72892.3,-11.09,-47.85,-48.07,0,*60
1488031283.36,10270,8.81,72904.3,-11.13,-47.79,-47.99,0,*68
1488031284.59,10271,8.81,72892.3,-11.15,-48.35,-48.41,0,*62
1488031285.82,10272,8.81,72878.0,-11.15,-48.35,-48.41,0,*61
1488031287.08,10273,8.81,72858.5,-11.15,-47.79,-47.93,0,*67
1488031288.35,10274,8.81,72858.3,-11.17,-47.65,-47.79,0,*6B
1488031289.56,10275,8.81,72876.3,-11.19,-46.97,-47.17,0,*60
1488031290.81,10276,8.81,72898.8,-11.19,-47.37,-47.51,0,*6A
1488031292.1,10277,8.81,72898.8,-11.21,-47.23,-47.23,0,*60
1488031293.34,10278,8.81,72908.5,-11.19,-46.61,-46.75,0,*61
1488031294.61,10279,8.81,72912.0,-11.21,-45.47,-45.33,0,*6D
1488031295.85,10280,8.81,72908.0,-11.19,-45.13,-45.27,0,*64
1488031297.09,10281,8.81,72916.3,-11.19,-45.27,-45.13,0,*65
1488031298.37,10282,8.81,72922.3,-11.19,-45.07,-44.93,0,*6D
1488031299.6,10283,8.81,72916.8,-11.17,-44.61,-44.53,0,*6F
1488031300.87,10284,8.81,72922.0,-11.15,-44.93,-44.93,0,*6B
1488031302.09,10285,8.81,72918.5,-11.15,-45.95,-45.95,0,*6A
1488031303.35,10286,8.81,72918.8,-11.15,-44.73,-44.73,0,*69
1488031304.61,10287,8.81,72916.8,-11.15,-44.73,-44.47,0,*6F
1488031305.9,10288,8.81,72918.0,-11.13,-44.47,-44.33,0,*62
1488031307.16,10289,8.81,72922.5,-11.11,-44.47,-44.47,0,*62
1488031308.4,10290,8.81,72928.5,-11.11,-44.79,-44.93,0,*6E
1488031309.62,10291,8.81,72918.3,-11.11,-46.21,-46.21,0,*6B
1488031310.91,10292,8.81,72914.8,-11.13,-46.69,-46.69,0,*6A
1488031312.17,10293,8.81,72904.8,-11.11,-47.23,-47.45,0,*69
1488031313.44,10294,8.81,72902.0,-11.13,-46.21,-46.07,0,*68
1488031314.73,10295,8.81,72902.3,-11.13,-45.81,-45.81,0,*6D
1488031316.0,10296,8.81,72902.3,-11.13,-44.99,-44.73,0,*6A
1488031317.25,10297,8.81,72898.5,-11.13,-44.61,-44.47,0,*6B
1488031318.52,10298,8.81,72900.3,-11.13,-44.61,-44.73,0,*63
1488031319.78,10299,8.81,72916.0,-11.13,-44.67,-44.99,0,*60
1488031321.05,10300,8.81,72900.5,-11.13,-47.31,-47.23,0,*63
1488031322.29,10301,8.81,72916.5,-11.13,-46.21,-46.21,0,*61
1488031323.56,10302,8.81,72918.0,-11.13,-44.73,-45.13,0,*65
1488031324.84,10303,8.81,72916.3,-11.13,-44.79,-44.93,0,*67
1488031326.08,10304,8.81,72918.3,-11.11,-44.93,-44.87,0,*63
1488031327.35,10305,8.81,72918.3,-11.13,-44.93,-44.99,0,*6F
1488031328.61,10306,8.81,72922.8,-11.11,-44.93,-44.67,0,*6F
1488031329.88,10307,8.81,72914.0,-11.09,-44.47,-44.47,0,*6C
1488031331.13,10308,8.81,72906.8,-11.11,-44.27,-44.21,0,*6C
1488031332.37,10309,8.81,72900.3,-11.05,-45.13,-45.07,0,*6B
1488031333.65,10310,8.81,72886.5,-11.09,-44.73,-44.67,0,*6F
1488031334.89,10311,8.81,72880.3,-11.05,-44.33,-44.41,0,*62
1488031336.12,10312,8.81,72882.0,-11.05,-44.41,-44.47,0,*62
1488031337.4,10313,8.81,72898.3,-11.09,-45.47,-45.47,0,*69
1488031338.65,10314,8.81,72918.3,-11.05,-46.07,-46.35,0,*63
1488031339.88,10315,8.81,72908.0,-11.09,-47.17,-47.31,0,*6B
1488031341.14,10316,8.81,72918.3,-11.09,-47.45,-47.51,0,*69
1488031342.36,10317,8.81,72904.3,-11.11,-47.31,-47.31,0,*64
1488031343.66,10318,8.81,72914.0,-11.13,-46.27,-46.41,0,*69
1488031344.95,10319,8.81,72906.0,-11.13,-46.07,-46.27,0,*6A
1488031346.19,10320,8.81,72894.5,-11.15,-45.81,-46.21,0,*6D
1488031347.4,10321,8.81,72900.0,-11.15,-46.01,-46.21,0,*67
1488031348.65,10322,8.81,72900.8,-11.15,-46.01,-46.49,0,*6A
1488031349.91,10323,8.81,72886.8,-11.15,-47.23,-47.37,0,*62
1488031351.16,10324,8.81,72880.5,-11.17,-45.87,-46.01,0,*6F
1488031352.37,10325,8.81,72892.0,-11.15,-45.21,-45.41,0,*67
1488031353.65,10326,8.81,72880.0,-11.17,-45.27,-45.41,0,*60
1488031354.87,10327,8.81,72888.0,-11.15,-45.53,-45.53,0,*63
1488031356.12,10328,8.81,72878.0,-11.15,-45.73,-45.73,0,*6C
1488031357.38,10329,8.81,72886.3,-11.17,-45.81,-45.87,0,*69
1488031358.63,10330,8.81,72890.0,-11.15,-45.73,-45.73,0,*65
1488031359.91,10331,8.81,72896.8,-11.17,-46.01,-46.15,0,*63
1488031361.15,10332,8.81,72898.0,-11.17,-45.67,-45.61,0,*63
1488031362.36,10333,8.81,72902.3,-11.15,-45.33,-45.21,0,*65
1488031363.58,10334,8.81,72904.3,-11.15,-45.21,-45.21,0,*61
1488031364.83,10335,8.81,72906.5,-11.15,-44.79,-44.93,0,*64
1488031366.08,10336,8.81,72914.0,-11.15,-44.79,-44.93,0,*67
1488031367.3,10337,8.81,72908.0,-11.15,-45.13,-45.21,0,*63
1488031368.53,10338,8.81,72912.5,-11.13,-45.13,-45.13,0,*6B
1488031369.77,10339,8.81,72906.8,-11.13,-45.95,-45.95,0,*6A
1488031371.01,10340,8.81,72908.5,-11.13,-45.21,-45.13,0,*65
1488031372.27,10341,8.81,72906.8,-11.13,-45.61,-45.73,0,*66
1488031373.55,10342,8.81,72900.5,-11.13,-45.73,-45.73,0,*66
1488031374.8,10343,8.81,72904.8,-11.13,-44.79,-44.79,0,*67
1488031376.03,10344,8.81,72910.3,-11.11,-44.47,-44.41,0,*64
1488031377.27,10345,8.81,72902.5,-11.13,-44.99,-44.99,0,*61
1488031378.52,10346,8.81,72894.0,-11.13,-45.13,-45.21,0,*63
1488031379.75,10347,8.81,72896.5,-11.11,-45.33,-45.73,0,*65
1488031381.01,10348,8.81,72894.5,-11.11,-45.07,-45.27,0,*6C
1488031382.22,10349,8.81,72892.3,-11.11,-44.41,-44.27,0,*6F
1488031383.49,10350,8.81,72892.5,-11.11,-45.07,-45.07,0,*67
1488031384.72,10351,8.81,72896.8,-11.11,-44.53,-44.73,0,*64
1488031386.01,10352,8.81,72896.5,-11.09,-44.73,-44.73,0,*6C
1488031387.27,10353,8.81,72902.8,-11.09,-44.47,-44.53,0,*68
1488031388.52,10354,8.81,72896.3,-11.09,-45.07,-45.13,0,*6F
1488031389.77,10355,8.81,72896.0,-11.05,-45.21,-45.27,0,*61
1488031391.01,10356,8.81,72892.0,-11.09,-45.53,-45.33,0,*6E
1488031392.28,10357,8.81,72890.3,-11.09,-44.47,-44.47,0,*69
1488031393.51,10358,8.81,72882.8,-11.05,-44.87,-44.79,0,*6B
1488031394.77,10359,8.81,72874.3,-11.05,-44.47,-44.47,0,*6B
1488031396.0,10360,8.81,72870.0,-11.05,-44.61,-44.67,0,*67
1488031397.27,10361,8.81,72874.8,-11.05,-44.33,-44.13,0,*62
1488031398.54,10362,8.81,72874.0,-11.03,-44.67,-44.87,0,*6B
1488031399.76,10363,8.81,72866.8,-11.01,-45.21,-45.41,0,*60
1488031400.99,10364,8.81,72872.8,-11.01,-44.41,-44.67,0,*65
1488031402.22,10365,8.81,72884.5,-11.01,-44.33,-44.41,0,*65
1488031403.46,10366,8.81,72884.5,-11.03,-44.61,-44.79,0,*68
1488031404.73,10367,8.81,72878.3,-11.03,-45.21,-45.27,0,*66
1488031405.97,10368,8.81,72884.3,-11.01,-44.33,-44.41,0,*68
1488031407.18,10369,8.81,72888.5,-11.01,-44.53,-44.61,0,*6D
1488031408.4,10370,8.81,72886.8,-11.01,-44.99,-45.33,0,*65
1488031409.62,10371,8.81,72892.0,-11.01,-45.53,-45.61,0,*64
1488031410.84,10372,8.81,72892.8,-11.01,-44.53,-44.79,0,*6E
1488031412.08,10373,8.81,72898.0,-11.01,-44.73,-44.79,0,*6D
1488031413.29,10374,8.81,72892.5,-10.97,-45.33,-45.21,0,*6D
1488031414.56,10375,8.81,72896.0,-10.99,-44.93,-44.99,0,*6B
1488031415.82,10376,8.81,72900.0,-10.99,-44.61,-44.73,0,*61
1488031417.08,10377,8.81,72902.0,-10.97,-44.33,-44.33,0,*6D
1488031418.34,10378,8.81,72908.8,-10.99,-44.33,-44.53,0,*6A
1488031419.55,10379,8.81,72910.5,-10.97,-44.41,-44.53,0,*60
1488031420.8,10380,8.81,72896.3,-10.97,-44.79,-44.93,0,*61
1488031422.04,10381,8.81,72906.0,-10.97,-44.13,-44.27,0,*63
1488031423.25,10382,8.81,72910.8,-10.97,-44.41,-44.53,0,*64
1488031424.51,10383,8.81,72882.0,-10.97,-44.73,-44.73,0,*66
1488031425.73,10384,8.81,72876.0,-10.97,-45.53,-45.41,0,*62
1488031426.94,10385,8.81,72882.3,-10.97,-45.33,-45.21,0,*63
1488031428.16,10386,8.81,72892.3,-10.97,-45.53,-45.41,0,*60
1488031429.39,10387,8.81,72894.8,-10.99,-45.33,-45.33,0,*6C
1488031430.63,10388,8.81,72908.3,-10.97,-44.73,-44.79,0,*67
1488031431.84,10389,8.81,72900.3,-10.97,-45.33,-45.41,0,*69
1488031433.11,10390,8.81,72896.0,-10.95,-45.73,-46.01,0,*60
1488031434.36,10391,8.81,72898.8,-10.95,-44.87,-44.87,0,*67
1488031435.65,10392,8.81,72892.8,-10.95,-45.07,-44.93,0,*68
1488031436.95,10393,8.81,72908.5,-10.95,-44.93,-45.07,0,*69
1488031438.22,10394,8.81,72910.8,-10.95,-44.87,-44.73,0,*69
1488031439.51,10395,8.81,72910.0,-10.95,-44.47,-44.67,0,*61
1488031440.77,10396,8.81,72912.5,-10.95,-45.81,-45.95,0,*65
1488031442.03,10397,8.81,72914.5,-10.97,-48.91,-49.11,0,*6A
1488031443.3,10398,8.81,72892.8,-10.99,-49.05,-49.11,0,*67
1488031444.59,10399,8.81,72868.8,-11.03,-51.33,-51.47,0,*62
1488031445.87,10400,8.81,72836.3,-11.09,-49.47,-49.61,0,*68
1488031447.14,10401,8.81,72880.3,-11.13,-46.61,-46.83,0,*6A
1488031448.43,10402,8.81,72888.3,-11.13,-45.81,-46.07,0,*68
1488031449.72,10403,8.81,72890.0,-11.13,-46.49,-46.61,0,*6E
1488031450.98,10404,8.81,72894.3,-11.13,-45.81,-45.95,0,*66
1488031452.24,10405,8.81,72906.0,-11.13,-45.73,-45.95,0,*6A
1488031453.48,10406,8.81,72904.8,-11.13,-45.53,-45.67,0,*66
1488031454.71,10407,8.81,72904.0,-11.13,-45.33,-45.33,0,*60
1488031456.01,10408,8.81,72906.5,-11.13,-44.73,-44.93,0,*61
1488031457.24,10409,8.81,72906.8,-11.13,-44.53,-44.53,0,*6E
1488031458.49,10410,8.81,72908.8,-11.11,-44.27,-44.21,0,*62
1488031459.71,10411,8.81,72910.0,-11.11,-44.41,-44.47,0,*63
1488031460.99,10412,8.81,72904.3,-11.09,-44.47,-44.47,0,*6F
1488031462.27,10413,8.81,72904.0,-11.05,-44.21,-44.21,0,*62
1488031463.54,10414,8.81,72912.3,-11.05,-44.21,-44.21,0,*65
1488031464.8,10415,8.81,72908.8,-11.09,-44.41,-44.21,0,*6E
1488031466.06,10416,8.81,72912.3,-11.03,-44.61,-44.67,0,*67
1488031467.28,10417,8.81,72912.0,-11.05,-44.99,-44.99,0,*66
1488031468.58,10418,8.81,72918.8,-11.03,-45.27,-45.27,0,*6F
1488031469.85,10419,8.81,72918.3,-11.03,-45.61,-45.47,0,*6A
1488031471.13,10420,8.81,72920.5,-11.03,-44.67,-44.67,0,*64
1488031472.4,10421,8.81,72924.5,-11.03,-44.99,-45.07,0,*63
1488031473.65,10422,8.81,72916.5,-11.01,-44.79,-44.93,0,*60
1488031474.91,10423,8.81,72916.5,-11.03,-44.67,-44.99,0,*66
1488031476.13,10424,8.81,72918.0,-11.01,-44.61,-44.61,0,*62
1488031477.34,10425,8.81,72920.0,-11.01,-44.41,-44.41,0,*63
1488031478.57,10426,8.81,72914.3,-11.01,-44.33,-44.41,0,*65
1488031479.83,10427,8.81,72914.8,-11.01,-44.33,-44.13,0,*63
1488031481.12,10428,8.81,72914.3,-10.99,-44.13,-44.13,0,*6E
1488031482.41,10429,8.81,72916.8,-10.99,-44.73,-44.73,0,*6F
1488031483.65,10430,8.81,72914.8,-10.99,-44.53,-44.61,0,*66
1488031484.88,10431,8.81,72912.5,-10.99,-44.61,-44.53,0,*67
1488031486.12,10432,8.81,72914.5,-10.97,-44.73,-44.79,0,*61
1488031487.4,10433,8.81,72916.5,-10.95,-44.27,-44.33,0,*6D
1488031488.64,10434,8.81,72910.0,-10.95,-44.27,-44.27,0,*6F
1488031489.89,10435,8.81,72910.0,-10.95,-44.87,-44.87,0,*6E
1488031491.17,10436,8.81,72910.8,-10.95,-44.73,-44.87,0,*66
1488031492.44,10437,8.81,72904.3,-10.95,-44.27,-44.21,0,*6A
1488031493.68,10438,8.81,72898.3,-10.95,-45.13,-45.13,0,*63
1488031494.91,10439,8.81,72906.3,-10.95,-45.13,-45.13,0,*62
1488031496.21,10440,8.81,72908.0,-10.95,-45.07,-45.27,0,*6E
1488031497.45,10441,8.81,72908.5,-10.93,-44.79,-44.67,0,*64
1488031498.68,10442,8.81,72914.0,-10.93,-44.79,-44.67,0,*67
1488031499.98,10443,8.81,72916.0,-10.95,-44.73,-44.73,0,*6F
1488031501.25,10444,8.81,72908.3,-10.95,-45.47,-45.53,0,*6D
1488031502.49,10445,8.81,72920.0,-10.93,-45.13,-44.93,0,*66
1488031503.78,10446,8.81,72916.5,-10.95,-45.27,-45.07,0,*68
1488031505.05,10447,8.81,72918.8,-10.95,-45.67,-45.81,0,*63
1488031506.32,10448,8.81,72914.5,-10.95,-45.13,-45.27,0,*63
1488031507.56,10449,8.81,72900.3,-10.95,-45.53,-45.95,0,*6F
1488031508.81,10450,8.81,72904.3,-10.99,-44.79,-44.99,0,*6F
1488031510.02,10451,8.81,72902.8,-10.97,-45.33,-45.53,0,*68
1488031511.24,10452,8.81,72902.5,-10.97,-45.53,-45.41,0,*6E
1488031512.47,10453,8.81,72896.8,-10.99,-45.41,-45.41,0,*62
1488031513.68,10454,8.81,72900.3,-10.97,-45.33,-45.21,0,*68
1488031514.92,10455,8.81,72904.8,-10.99,-44.61,-44.61,0,*64
1488031516.2,10456,8.81,72894.8,-10.99,-45.81,-45.73,0,*6A
1488031517.45,10457,8.81,72892.8,-10.97,-45.73,-45.73,0,*68
1488031518.73,10458,8.81,72892.3,-10.97,-44.93,-44.93,0,*67
1488031519.95,10459,8.81,72906.3,-10.97,-45.21,-45.33,0,*65
1488031521.16,10460,8.81,72910.3,-10.97,-44.99,-44.79,0,*62
1488031522.43,10461,8.81,72900.0,-10.97,-46.49,-46.69,0,*6F
1488031523.7,10462,8.81,72898.5,-10.99,-47.31,-47.37,0,*66
1488031524.95,10463,8.81,72900.5,-10.99,-45.81,-45.87,0,*67
1488031526.21,10464,8.81,72896.0,-10.99,-45.73,-45.53,0,*64
1488031527.45,10465,8.81,72896.8,-10.99,-46.21,-46.21,0,*67
1488031528.7,10466,8.81,72900.5,-10.99,-45.53,-45.33,0,*62
1488031529.94,10467,8.88,72910.8,-10.99,-44.79,-44.61,0,*6C
1488031531.18,10468,8.81,72906.5,-10.99,-44.27,-44.07,0,*68
1488031532.43,10469,8.88,72914.5,-10.99,-44.79,-44.79,0,*6B
1488031533.68,10470,8.81,72908.3,-10.97,-44.79,-44.93,0,*69
1488031534.89,10471,8.81,72912.3,-10.97,-45.13,-44.99,0,*6F
1488031536.16,10472,8.81,72914.0,-10.99,-46.01,-45.73,0,*67
1488031537.4,10473,8.81,72910.3,-10.99,-46.21,-45.61,0,*67
1488031538.66,10474,8.81,72916.3,-10.99,-47.09,-47.03,0,*6D
1488031539.9,10475,8.81,72916.5,-10.99,-45.53,-45.13,0,*62
1488031541.14,10476,8.81,72914.8,-11.01,-45.41,-44.93,0,*6B
1488031542.41,10477,8.81,72908.3,-11.03,-46.49,-46.35,0,*6D
1488031543.67,10478,8.81,72908.5,-11.03,-46.75,-46.69,0,*64
1488031544.94,10479,8.81,72908.0,-11.03,-45.95,-46.07,0,*60
1488031546.18,10480,8.81,72910.5,-11.05,-45.81,-45.95,0,*6D
1488031547.43,10481,8.81,72918.0,-11.05,-45.27,-45.21,0,*6F
1488031548.67,10482,8.81,72914.0,-11.05,-45.47,-45.41,0,*6C
1488031549.91,10483,8.81,72912.0,-11.09,-44.87,-44.53,0,*6E
1488031551.16,10484,8.81,72918.3,-11.05,-44.87,-44.33,0,*63
1488031552.41,10485,8.81,72916.8,-11.05,-46.49,-45.95,0,*6F
1488031553.65,10486,8.81,72922.8,-11.05,-46.75,-46.27,0,*69
1488031554.91,10487,8.81,72914.5,-11.09,-47.17,-47.71,0,*63
1488031556.18,10488,8.81,72908.5,-11.13,-47.99,-48.69,0,*67
1488031557.41,10489,8.81,72896.0,-11.15,-47.23,-47.51,0,*65
1488031558.68,10490,8.88,72892.3,-11.17,-46.55,-46.69,0,*65
1488031559.95,10491,8.81,72894.0,-11.17,-47.31,-47.37,0,*6D
1488031561.25,10492,8.81,72898.8,-11.17,-46.15,-46.15,0,*68
1488031562.51,10493,8.81,72894.5,-11.17,-45.81,-45.67,0,*61
1488031563.78,10494,8.81,72896.8,-11.17,-46.27,-46.35,0,*6D
1488031564.99,10495,8.81,72900.8,-11.19,-45.67,-45.67,0,*61
1488031566.23,10496,8.81,72908.8,-11.19,-45.13,-45.27,0,*65
1488031567.47,10497,8.81,72902.0,-11.19,-46.07,-46.21,0,*67
1488031568.69,10498,8.81,72904.5,-11.19,-45.87,-45.53,0,*65
1488031569.93,10499,8.81,72910.5,-11.19,-45.13,-45.07,0,*68
1488031571.17,10500,8.81,72912.0,-11.19,-45.95,-45.73,0,*64
1488031572.43,10501,8.81,72916.3,-11.19,-45.73,-45.27,0,*6C
1488031573.64,10502,8.81,72918.0,-11.19,-45.87,-45.67,0,*60
1488031574.9,10503,8.88,72908.5,-11.21,-46.41,-45.95,0,*6E
1488031576.19,10504,8.81,72908.8,-11.21,-47.37,-46.61,0,*61
1488031577.45,10505,8.88,72914.3,-11.21,-48.27,-47.17,0,*6E
1488031578.74,10506,8.88,72910.3,-11.25,-47.79,-46.69,0,*65
1488031580.01,10507,8.81,72910.5,-11.25,-47.51,-46.41,0,*64
1488031581.29,10508,8.81,72902.8,-11.31,-46.89,-46.07,0,*68
1488031582.53,10509,8.81,72902.0,-11.31,-46.07,-45.87,0,*64
1488031583.75,10510,8.88,72904.0,-11.31,-46.21,-46.01,0,*65
1488031584.98,10511,8.81,72904.3,-11.31,-47.31,-46.75,0,*67
1488031586.27,10512,8.88,72910.8,-11.33,-46.69,-45.47,0,*68
1488031587.57,10513,8.81,72912.5,-11.33,-47.79,-46.07,0,*6E
1488031588.81,10514,8.88,72912.8,-11.35,-48.13,-45.95,0,*64
1488031590.08,10515,8.81,72908.3,-11.37,-47.37,-44.79,0,*6D
1488031591.36,10516,8.81,72904.3,-11.37,-45.27,-43.35,0,*62
1488031592.62,10517,8.81,72902.0,-11.39,-44.93,-43.49,0,*68
1488031593.87,10518,8.88,72898.0,-11.39,-44.21,-43.49,0,*6E
1488031595.12,10519,8.81,72894.5,-11.39,-44.27,-44.13,0,*61
1488031596.38,10520,8.88,72894.5,-11.39,-44.33,-44.47,0,*6F
1488031597.59,10521,8.81,72888.8,-11.41,-44.07,-43.87,0,*6D
1488031598.79,10522,8.81,72890.8,-11.41,-43.87,-43.95,0,*62
1488031600.03,10523,8.88,72894.8,-11.41,-44.07,-44.13,0,*65
1488031601.26,10524,8.81,72892.3,-11.41,-44.07,-44.13,0,*62
1488031602.47,10525,8.81,72894.8,-11.41,-43.95,-43.75,0,*68
1488031603.68,10526,8.81,72894.0,-11.41,-43.87,-43.61,0,*6D
1488031604.92,10527,8.81,72896.3,-11.39,-43.49,-43.21,0,*65
1488031606.17,10528,8.88,72902.0,-11.39,-42.75,-42.57,0,*64
1488031607.41,10529,8.81,72898.8,-11.37,-42.63,-42.75,0,*6C
1488031608.7,10530,8.88,72902.0,-11.37,-43.81,-44.01,0,*6C
1488031609.97,10531,8.81,72902.0,-11.37,-43.55,-43.61,0,*65
1488031611.23,10532,8.81,72892.3,-11.39,-44.73,-44.87,0,*64
1488031612.48,10533,8.88,72890.5,-11.37,-44.79,-44.79,0,*60
1488031613.75,10534,8.88,72884.3,-11.37,-44.21,-44.27,0,*61
1488031614.99,10535,8.81,72886.0,-11.37,-44.41,-44.87,0,*6C
1488031616.24,10536,8.81,72888.5,-11.37,-44.27,-44.79,0,*6E
1488031617.48,10537,8.88,72892.5,-11.37,-44.07,-44.61,0,*64
1488031618.73,10538,8.81,72894.5,-11.39,-45.13,-45.73,0,*63
1488031620.0,10539,8.88,72894.5,-11.37,-45.07,-45.33,0,*6D
1488031621.3,10540,8.88,72896.8,-11.37,-44.93,-45.27,0,*6A
1488031622.54,10541,8.81,72900.0,-11.37,-45.33,-45.67,0,*64
1488031623.78,10542,8.81,72902.3,-11.35,-46.07,-45.87,0,*6F
1488031625.02,10543,8.81,72892.3,-11.37,-45.95,-45.87,0,*64
1488031626.32,10544,8.81,72898.5,-11.37,-46.15,-46.41,0,*61
1488031627.59,10545,8.88,72904.0,-11.35,-47.03,-47.23,0,*61
1488031628.84,10546,8.81,72902.3,-11.39,-48.13,-48.21,0,*6D
1488031630.07,10547,8.88,72904.0,-11.41,-47.65,-47.71,0,*67
1488031631.28,10548,8.88,72906.3,-11.41,-47.09,-47.09,0,*6D
1488031632.52,10549,8.88,72906.3,-11.43,-46.21,-46.21,0,*6E
1488031633.8,10550,8.88,72906.8,-11.43,-45.47,-45.47,0,*66
1488031635.03,10551,8.81,72900.0,-11.43,-45.41,-45.61,0,*65
1488031636.25,10552,8.81,72904.0,-11.41,-45.61,-45.61,0,*66
1488031637.48,10553,8.88,72908.5,-11.43,-45.67,-45.67,0,*65
1488031638.77,10554,8.88,72908.5,-11.43,-46.41,-46.27,0,*62
1488031640.0,10555,8.88,72914.0,-11.41,-45.61,-45.73,0,*62
1488031641.23,10556,8.88,72918.8,-11.41,-45.95,-45.73,0,*6A
1488031642.5,10557,8.88,72912.0,-11.43,-47.31,-47.37,0,*67
1488031643.76,10558,8.81,72894.3,-11.43,-48.49,-48.69,0,*6C
1488031645.06,10559,8.81,72876.5,-11.47,-49.11,-49.11,0,*6B
1488031646.35,10560,8.88,72886.8,-11.47,-48.77,-48.77,0,*61
1488031647.62,10561,8.88,72878.8,-11.49,-48.69,-48.77,0,*61
1488031648.88,10562,8.88,72874.0,-11.51,-47.93,-47.99,0,*6E
1488031650.15,10563,8.81,72860.0,-11.55,-48.63,-48.77,0,*64
1488031651.39,10564,8.88,72850.5,-11.57,-48.69,-49.05,0,*6F
1488031652.66,10565,8.88,72840.8,-11.59,-48.91,-49.25,0,*65
1488031653.86,10566,8.88,72860.3,-11.61,-49.33,-49.67,0,*62
1488031655.13,10567,8.88,72852.5,-11.67,-49.39,-49.67,0,*6F
1488031656.39,10568,8.88,72866.0,-11.67,-47.71,-47.85,0,*60
1488031657.69,10569,8.88,72864.5,-11.71,-46.07,-46.27,0,*6F
1488031658.93,10570,8.88,72876.0,-11.69,-45.81,-45.87,0,*6A
1488031660.16,10571,8.88,72884.0,-11.69,-45.41,-45.47,0,*6B
1488031661.42,10572,8.88,72892.0,-11.67,-45.73,-45.95,0,*68
1488031662.66,10573,8.88,72888.3,-11.67,-45.13,-45.13,0,*61
1488031663.9,10574,8.88,72892.8,-11.67,-45.41,-45.61,0,*64
1488031665.14,10575,8.88,72900.8,-11.67,-45.13,-45.13,0,*67
1488031666.35,10576,8.81,72896.0,-11.65,-45.41,-45.41,0,*66
1488031667.57,10577,8.88,72890.8,-11.65,-45.53,-45.53,0,*67
1488031668.82,10578,8.88,72892.8,-11.61,-46.35,-46.27,0,*6F
1488031670.03,10579,8.88,72900.3,-11.61,-45.95,-45.95,0,*6D
1488031671.26,10580,8.88,72902.0,-11.61,-45.73,-45.87,0,*60
1488031672.47,10581,8.81,72902.5,-11.61,-45.67,-45.67,0,*6A
1488031673.68,10582,8.88,72912.8,-11.61,-45.87,-45.95,0,*6A
1488031674.89,10583,8.88,72916.0,-11.61,-45.87,-45.95,0,*6B
1488031676.13,10584,8.88,72920.8,-11.61,-45.95,-46.07,0,*67
1488031677.35,10585,8.88,72914.3,-11.61,-45.53,-45.53,0,*6E
1488031678.63,10586,8.88,72916.3,-11.61,-46.27,-46.27,0,*6D
1488031679.9,10587,8.88,72918.5,-11.61,-46.27,-46.15,0,*6D
1488031681.17,10588,8.88,72920.3,-11.61,-46.15,-46.15,0,*63
1488031682.39,10589,8.88,72914.8,-11.61,-47.99,-48.07,0,*6A
1488031683.66,10590,8.88,72908.3,-11.61,-48.35,-48.69,0,*63
1488031684.9,10591,8.88,72904.8,-11.67,-47.09,-47.31,0,*66
1488031686.16,10592,8.88,72898.3,-11.67,-46.41,-46.35,0,*6D
1488031687.45,10593,8.88,72916.5,-11.67,-45.73,-45.81,0,*62
1488031688.71,10594,8.88,72912.0,-11.67,-45.61,-45.73,0,*6B
1488031689.96,10595,8.88,72914.5,-11.67,-45.53,-45.53,0,*69
1488031691.2,10596,8.88,72926.3,-11.65,-45.95,-45.81,0,*6D
1488031692.45,10597,8.88,72936.0,-11.65,-46.01,-46.15,0,*6C
1488031693.75,10598,8.88,72942.0,-11.67,-46.61,-46.89,0,*62
1488031694.99,10599,8.88,72936.5,-11.67,-47.65,-47.85,0,*6B
1488031696.21,10600,8.88,72922.3,-11.69,-48.41,-48.63,0,*68
1488031697.5,10601,8.88,72912.5,-11.71,-47.93,-47.93,0,*60
1488031698.74,10602,8.88,72924.0,-11.69,-45.81,-45.87,0,*6C
1488031699.97,10603,8.88,72916.0,-11.69,-45.41,-45.47,0,*6D